This is the latest recevied weather packets stored in our database for station/object K9YK-13. If no packets are shown the sender has not sent any weather packets the latest 10 day(s).
| Time | Temp. | Humidity | Pressure | Rain* | Wind** | Luminosity | Snow |
|---|---|---|---|---|---|---|---|
| 1777471573 | 14.44° C | 77% | 0 hPa | 0 mm | - | - | - |
| 1777471273 | 15° C | 79% | 0 hPa | 0 mm | - | - | - |
| 1777470973 | 14.44° C | 80% | 0 hPa | 0 mm | - | - | - |
| 1777470673 | 14.44° C | 81% | 0 hPa | 0 mm | - | - | - |
| 1777470373 | 14.44° C | 80% | 0 hPa | 0 mm | - | - | - |
| 1777470073 | 13.33° C | 81% | 0 hPa | 0 mm | - | - | - |
| 1777469773 | 13.33° C | 82% | 0 hPa | 0 mm | - | - | - |
| 1777469473 | 13.33° C | 82% | 0 hPa | 0 mm | - | - | - |
| 1777469173 | 13.89° C | 82% | 0 hPa | 0 mm | - | - | - |
| 1777468873 | 13.33° C | 85% | 0 hPa | 0 mm | - | - | - |
| 1777468573 | 13.33° C | 86% | 0 hPa | 0 mm | - | - | - |
| 1777468273 | 12.22° C | 84% | 0 hPa | 0 mm | - | - | - |
| 1777467973 | 12.22° C | 89% | 0 hPa | 0 mm | - | - | - |
| 1777467673 | 13.89° C | 89% | 0 hPa | 0 mm | - | - | - |
| 1777467373 | 13.33° C | 92% | 0 hPa | 0 mm | - | - | - |
| 1777467073 | 13.33° C | 95% | 0 hPa | 0 mm | - | - | - |
| 1777466773 | 12.22° C | 96% | 0 hPa | 0 mm | - | - | - |
| 1777466473 | 12.78° C | 96% | 0 hPa | 0 mm | - | - | - |
| 1777466173 | 11.67° C | 98% | 0 hPa | 0 mm | - | - | - |
| 1777465873 | 11.11° C | 98% | 0 hPa | 0 mm | - | - | - |
| 1777465573 | 11.11° C | 98% | 0 hPa | 0 mm | - | - | - |
| 1777465273 | 11.11° C | 98% | 0 hPa | 0 mm | - | - | - |
| 1777464973 | 11.11° C | 99% | 0 hPa | 0 mm | - | - | - |
| 1777464673 | 12.22° C | 100% | 0 hPa | 0 mm | - | - | - |
| 1777464373 | 11.67° C | 100% | 0 hPa | 0 mm | - | - | - |
* Rain latest hour (hover to see other rain measurements)
** Current wind speed in m/s (hover to see current wind gust speed)